Houston Clover, TX

11:48 AM CDT on April 29, 2017 (GMT -0500)
Clover

Weather History for KLVJ - March, 2014

Change the Weather History Date:

Thursday, March 6, 2014

  Actual Average (KEFD) Record (KEFD)
Temperature  
Mean Temperature 54 °F -  
Max Temperature 62 °F 68 °F 93 °F (2017)
Min Temperature 46 °F 50 °F 35 °F (2015)
Degree Days  
Heating Degree Days 11    
Growing Degree Days 4 (Base 50)    
Moisture  
Dew Point 41 °F    
Average Humidity 67    
Maximum Humidity 87    
Minimum Humidity 42    
Precipitation  
Precipitation 0.00 in - - ()
Sea Level Pressure  
Sea Level Pressure 30.12 in    
Wind  
Wind Speed 9 mph (NNW)    
Max Wind Speed 15 mph    
Max Gust Speed 24 mph    
Visibility 9 miles    
Events      
Averages and records for this station are not official NWS values.
T = Trace of Precipitation, MM = Missing Value Source: NWS Daily Summary

Daily Weather History Graph

Daily Weather History Graph

Search for Another Location

Airport or City:

Trip Planner

Search our weather history database for the weather conditions in past years. The results will help you decide how hot, cold, wet, or windy it might be!

Date:

Astronomy

Mar. 06, 2014 Rise Set
Actual Time 6:41 AM CST 6:23 PM CST
Civil Twilight 6:17 AM CST 6:47 PM CST
Nautical Twilight 5:49 AM CST 7:15 PM CST
Astronomical Twilight 5:22 AM CST 7:42 PM CST
Moon 10:15 AM CST (3/6) No Moon Set
Length of Visible Light 12h 30m
Length of Day
11h 42m
Waxing Crescent, 32% of the Moon is Illuminated
Mar 6
Waxing Crescent
Mar 8
First Quarter
Mar 16
Full
Mar 23
Last Quarter
Mar 30
New

Hourly Weather History & Observations

Time (CST) Temp. Dew Point Humidity Pressure Visibility Wind Dir Wind Speed Gust Speed Precip Events Conditions
12:53 AM 50.0 °F 46.0 °F 86% 30.12 in 7.0 mi NNW 9.2 mph - N/A   Overcast
1:53 AM 50.0 °F 46.0 °F 86% 30.10 in 6.0 mi North 8.1 mph - N/A   Overcast
2:14 AM 50.0 °F 45.0 °F 83% 30.10 in 7.0 mi NNW 8.1 mph - N/A   Overcast
2:39 AM 50.0 °F 45.0 °F 83% 30.10 in 8.0 mi NNW 8.1 mph - N/A   Overcast
2:53 AM 50.0 °F 45.0 °F 83% 30.10 in 8.0 mi NNW 8.1 mph - N/A   Overcast
3:53 AM 50.0 °F 45.0 °F 83% 30.11 in 3.0 mi NW 5.8 mph - N/A   Haze
4:00 AM 48.9 °F 45.0 °F 86% 30.11 in 3.0 mi NNW 8.1 mph - N/A   Overcast
4:53 AM 50.0 °F 45.0 °F 83% 30.11 in 8.0 mi NNW 5.8 mph - N/A   Overcast
5:07 AM 50.0 °F 45.0 °F 83% 30.11 in 9.0 mi NNW 8.1 mph - N/A   Overcast
5:51 AM 48.2 °F 44.6 °F 87% 30.13 in 10.0 mi NNW 10.4 mph - N/A   Overcast
5:53 AM 48.9 °F 43.0 °F 80% 30.13 in 10.0 mi NNW 10.4 mph - N/A   Mostly Cloudy
6:10 AM 48.9 °F 42.1 °F 77% 30.14 in 10.0 mi North 9.2 mph - N/A   Scattered Clouds
6:53 AM 48.0 °F 41.0 °F 77% 30.15 in 9.0 mi NNW 8.1 mph - N/A   Clear
7:53 AM 48.9 °F 41.0 °F 74% 30.17 in 9.0 mi NW 10.4 mph - N/A   Clear
8:53 AM 51.1 °F 37.9 °F 61% 30.19 in 10.0 mi North 12.7 mph - N/A   Clear
9:53 AM 54.0 °F 37.0 °F 53% 30.19 in 10.0 mi NNW 13.8 mph - N/A   Clear
10:53 AM 55.9 °F 36.0 °F 47% 30.18 in 10.0 mi NW 12.7 mph - N/A   Clear
11:53 AM 59.0 °F 37.0 °F 44% 30.17 in 10.0 mi NW 15.0 mph - N/A   Clear
12:53 PM 61.0 °F 37.9 °F 42% 30.14 in 10.0 mi NNW 12.7 mph 23.0 mph N/A   Partly Cloudy
1:53 PM 62.1 °F 39.0 °F 43% 30.12 in 10.0 mi NW 10.4 mph 23.0 mph N/A   Partly Cloudy
2:53 PM 62.1 °F 39.0 °F 43% 30.10 in 10.0 mi NW 11.5 mph 19.6 mph N/A   Clear
3:53 PM 62.1 °F 39.0 °F 43% 30.09 in 10.0 mi North 13.8 mph 24.2 mph N/A   Clear
4:53 PM 62.1 °F 39.0 °F 43% 30.08 in 10.0 mi NNW 12.7 mph - N/A   Clear
5:53 PM 60.1 °F 39.0 °F 46% 30.07 in 10.0 mi NW 10.4 mph - N/A   Clear
6:53 PM 55.9 °F 39.0 °F 53% 30.08 in 10.0 mi NW 4.6 mph - N/A   Clear
7:53 PM 50.0 °F 39.0 °F 66% 30.09 in 10.0 mi Calm Calm - N/A   Clear
8:53 PM 50.0 °F 39.9 °F 68% 30.11 in 10.0 mi NW 4.6 mph - N/A   Clear
9:53 PM 51.1 °F 39.9 °F 66% 30.12 in 10.0 mi NNW 3.5 mph - N/A   Clear
10:53 PM 46.9 °F 39.0 °F 74% 30.12 in 10.0 mi Calm Calm - N/A   Clear
11:53 PM 48.0 °F 39.0 °F 71% 30.12 in 10.0 mi NW 5.8 mph - N/A   Clear